Location: Unspecified
(34.4950°S, 58.5160°W)
Time: 14:41:38
(UTC+00:00)

BlueWalker 3 - Pass Details

Date: 16 February 2026
Orbit: 451 x 458 km, 53.2° (Epoch: 4 March)

Event Time Altitude Azimuth Distance (km) Brightness Sun altitude
Rises 01:20:05 0° 284° (WNW) 2,470 5.9 -28.5°
Reaches altitude 10° 01:22:33 10° 268° (W) 1,605 5.1 -28.8°
Enters shadow 01:25:18 22° 218° (SW) 1,068 4.2 -29.3°
